Dewpoint
5 4 6 6 5 4 4 2 3 1 4 2 1 1 -0 1 3 3 4 4 4 3 3 2 1 1 0 -0 -1 -2 -2 -3 -4 -3 -3 -4 -3 -3 -4 -7 -13 -18 -16 -14
6 5 5 6 5 6 3 3 3 5 4 2 1 1 -0 1 2 3 3 4 4 4 3 2 2 1 1 0 -0 -1 -3 -4 -4 -4 -4 -3 -3 -5 -6 -11 -18 -16 -14 -14
7 7 7 7 5 6 5 4 5 7 4 2 2 -1 0 1 2 2 3 3 3 3 3 3 2 2 2 1 -0 -2 -3 -4 -5 -4 -3 -3 -5 -6 -11 -18 -18 -16 -15 -14
7 8 9 5 5 4 5 5 4 5 5 4 2 0 1 1 2 2 2 3 3 3 3 3 3 2 2 1 -0 -2 -3 -5 -5 -4 -3 -4 -6 -11 -17 -19 -18 -17 -16 -14
9 7 5 5 8 7 8 6 5 6 5 1 0 1 2 1 2 2 2 2 2 3 3 3 3 2 1 -0 -1 -3 -5 -5 -3 -3 -3 -6 -11 -16 -19 -21 -20 -18 -14 -14
7 7 5 1 3 2 5 6 4 5 5 1 1 3 4 1 2 2 2 2 2 3 3 3 2 1 0 -1 -3 -4 -5 -3 -2 -4 -7 -9 -14 -19 -22 -22 -19 -14 -14 -17
7 7 5 1 -1 -0 7 4 -1 3 2 1 1 1 1 1 1 2 2 3 3 3 3 2 1 -1 -1 -3 -4 -4 -2 -3 -4 -6 -8 -14 -17 -23 -25 -20 -15 -14 -17 -21
5 7 5 1 -1 1 -0 0 -1 -0 0 0 1 1 1 1 1 2 2 2 2 2 1 -1 -1 -2 -2 -3 -3 -2 -3 -4 -6 -9 -13 -16 -23 -28 -19 -14 -14 -18 -22 -24
4 4 1 0 1 1 -0 0 0 0 -0 -0 1 0 0 0 0 0 1 0 0 0 -1 -2 -3 -3 -2 -3 -2 -3 -4 -6 -8 -12 -16 -23 -26 -19 -14 -14 -19 -22 -23 -22
4 2 2 0 1 0 0 -0 0 0 -0 -0 1 0 0 -0 -1 -1 -1 -2 -2 -3 -4 -4 -4 -5 -4 -2 -3 -4 -6 -7 -11 -16 -22 -23 -17 -14 -15 -19 -22 -23 -22 -20
3 1 -0 0 1 -0 -0 -0 0 0 0 0 0 -0 -1 -3 -5 -7 -7 -7 -7 -7 -6 -6 -5 -4 -3 -3 -4 -6 -7 -11 -16 -21 -20 -15 -13 -16 -19 -21 -22 -20 -18 -16
5 1 1 0 1 0 -0 -0 -0 -0 -0 -0 -1 -5 -8 -8 -8 -8 -7 -7 -6 -6 -5 -5 -4 -4 -3 -5 -7 -8 -12 -17 -20 -18 -14 -13 -16 -19 -22 -24 -25 -23 -22 -19
2 1 -0 0 1 -0 -0 -0 -0 -1 -1 -4 -8 -9 -9 -8 -7 -7 -7 -6 -6 -5 -5 -4 -4 -4 -5 -7 -9 -13 -18 -19 -16 -13 -13 -16 -20 -22 -25 -28 -26 -25 -22 -20
1 0 0 0 0 -0 -0 -1 -1 -3 -6 -8 -8 -8 -8 -7 -7 -7 -7 -6 -5 -5 -5 -5 -4 -5 -7 -11 -15 -18 -18 -16 -13 -13 -16 -20 -23 -24 -25 -24 -23 -23 -21 -20
0 -0 -0 -0 -0 -0 -1 -1 -4 -6 -7 -7 -6 -8 -8 -9 -8 -8 -7 -6 -5 -5 -5 -5 -6 -8 -12 -16 -17 -18 -16 -13 -12 -15 -20 -23 -24 -25 -24 -23 -22 -20 -19 -19
-0 -0 -0 -0 -1 -1 -2 -4 -5 -5 -6 -7 -9 -10 -10 -11 -10 -8 -6 -6 -6 -6 -6 -7 -8 -14 -16 -17 -17 -16 -14 -12 -15 -19 -24 -25 -25 -24 -23 -22 -21 -19 -19 -17
-1 -1 -1 -1 -1 -2 -3 -4 -6 -7 -9 -11 -12 -12 -11 -10 -9 -8 -7 -6 -7 -7 -8 -10 -17 -16 -17 -17 -16 -14 -12 -14 -18 -24 -25 -25 -24 -23 -22 -20 -19 -19 -18 -17
-0 -1 -1 -1 -1 -2 -3 -5 -8 -10 -11 -12 -13 -12 -11 -10 -10 -8 -8 -8 -7 -8 -14 -17 -16 -16 -16 -16 -14 -12 -13 -18 -24 -25 -25 -24 -24 -22 -21 -20 -19 -18 -17 -17
-1 -1 -1 -1 -2 -3 -5 -8 -10 -11 -12 -13 -12 -11 -10 -9 -9 -8 -8 -8 -9 -13 -15 -15 -16 -16 -15 -14 -12 -14 -19 -24 -25 -25 -24 -24 -23 -23 -21 -20 -18 -17 -16 -15
-1 -1 -1 -1 -3 -5 -8 -9 -10 -12 -13 -12 -11 -10 -9 -9 -8 -8 -8 -10 -14 -14 -15 -15 -15 -15 -13 -12 -16 -20 -24 -24 -25 -24 -24 -24 -23 -22 -20 -18 -17 -17 -16 -15
-1 -1 -2 -3 -5 -8 -9 -10 -14 -13 -11 -11 -11 -11 -10 -9 -9 -9 -10 -12 -13 -14 -14 -14 -13 -12 -13 -18 -22 -24 -24 -24 -24 -24 -24 -22 -21 -20 -19 -17 -16 -15 -15 -15
-1 -2 -3 -5 -7 -9 -11 -14 -14 -13 -11 -10 -9 -9 -9 -9 -10 -11 -12 -13 -13 -14 -13 -12 -13 -18 -19 -24 -24 -24 -24 -25 -24 -23 -22 -20 -19 -18 -17 -16 -15 -15 -15 -15
-2 -3 -5 -7 -9 -11 -12 -12 -12 -12 -11 -10 -10 -10 -10 -11 -11 -12 -13 -13 -13 -11 -12 -17 -19 -23 -24 -24 -24 -25 -25 -24 -23 -21 -19 -18 -17 -16 -15 -15 -15 -15 -15 -14
-3 -5 -7 -9 -12 -13 -11 -10 -10 -10 -10 -10 -11 -11 -11 -12 -13 -13 -12 -11 -11 -16 -18 -21 -25 -24 -24 -24 -25 -25 -25 -23 -20 -18 -17 -16 -15 -15 -15 -15 -15 -15 -15 -15
-5 -7 -10 -12 -12 -11 -11 -10 -10 -10 -11 -11 -11 -12 -13 -12 -11 -10 -11 -15 -17 -20 -24 -25 -24 -24 -25 -26 -26 -25 -22 -19 -17 -17 -16 -15 -15 -15 -15 -16 -18 -17 -15 -14
-7 -10 -11 -12 -13 -12 -11 -10 -11 -11 -11 -12 -12 -11 -10 -10 -11 -15 -16 -18 -23 -25 -24 -24 -24 -26 -27 -27 -24 -21 -18 -17 -17 -16 -15 -15 -15 -15 -18 -19 -18 -16 -14 -14
-10 -11 -11 -11 -11 -11 -11 -11 -11 -11 -11 -11 -10 -9 -11 -14 -15 -17 -20 -24 -24 -24 -24 -25 -27 -28 -27 -24 -21 -18 -17 -16 -15 -15 -16 -15 -15 -16 -18 -18 -17 -16 -14 -14
Wind_Speed
16 17 11 10 11 21 22 24 13 11 14 19 23 17 3 8 19 26 31 35 38 38 37 35 33 30 28 25 22 19 17 15 14 13 12 11 10 10 11 13 15 16 17 19
7 17 22 17 17 18 25 18 20 10 19 16 24 17 6 19 23 25 30 35 36 36 36 35 33 31 26 22 20 17 15 14 13 12 11 10 9 10 12 14 14 15 19 21
9 3 10 7 24 20 22 17 15 13 15 10 11 7 2 15 24 29 32 36 37 37 36 35 32 28 24 21 18 16 14 12 12 12 10 9 9 12 13 13 14 17 20 24
3 2 1 5 10 17 17 13 11 11 15 17 6 2 3 12 22 25 30 34 35 36 35 32 28 23 20 18 16 14 13 13 12 10 8 8 11 11 11 13 16 20 23 26
1 2 3 5 6 11 8 8 16 17 20 4 4 5 4 4 14 20 26 30 32 32 31 29 25 22 20 17 15 14 13 12 9 7 8 9 10 11 13 15 19 22 25 27
4 3 3 1 9 14 11 6 19 21 15 9 12 5 3 6 13 17 20 22 26 27 28 27 24 20 18 17 15 14 12 9 7 8 7 9 10 12 15 18 21 24 25 26
2 2 5 3 3 12 6 5 8 28 20 20 7 2 16 15 17 18 20 23 26 28 28 24 22 19 16 15 14 12 10 8 6 7 8 9 11 14 18 21 23 25 25 25
2 1 3 1 3 6 3 0 8 16 15 15 22 26 26 24 26 26 28 29 28 28 25 21 19 16 16 15 13 11 8 6 6 7 8 10 12 16 19 22 24 25 26 26
6 4 3 4 3 2 2 5 6 18 21 24 32 31 31 31 30 30 30 28 25 24 24 20 16 13 14 13 11 9 6 5 5 6 9 12 15 18 20 22 23 25 26 28
2 2 2 2 1 3 4 7 10 20 26 28 35 32 32 30 29 28 26 25 22 21 20 20 18 15 11 11 9 6 5 4 5 7 10 13 16 18 20 21 23 25 27 28
3 3 3 5 4 8 12 15 22 23 27 33 36 34 32 30 27 25 23 21 19 18 18 18 16 13 12 9 6 5 5 5 6 9 12 14 16 18 19 20 22 23 23 24
5 6 4 4 13 13 19 22 22 26 29 31 32 34 31 28 25 23 22 20 18 16 15 15 14 12 10 7 6 5 4 5 8 10 12 15 17 18 18 20 22 21 22 22
2 5 4 12 17 17 21 22 24 27 30 32 29 28 26 25 21 19 17 16 15 14 14 14 13 11 8 7 5 4 4 6 8 11 14 16 18 20 24 23 23 23 23 23
7 12 11 18 12 19 23 25 27 30 29 28 27 24 22 22 20 17 16 14 14 14 13 12 11 10 8 5 4 4 5 7 10 13 15 17 18 21 23 25 28 27 23 23
15 6 6 17 25 26 26 29 31 30 28 26 22 20 18 18 18 17 16 15 14 13 13 12 11 8 6 4 4 4 6 9 12 14 16 18 20 22 23 24 26 26 27 25
10 11 19 27 31 31 31 32 33 31 27 25 22 19 18 17 17 17 16 14 13 14 13 11 9 8 6 3 4 6 8 11 14 16 18 19 21 23 24 25 25 25 26 27
22 17 24 30 33 34 34 33 31 30 26 24 22 21 20 19 19 18 17 15 12 11 10 9 8 6 3 4 6 8 10 13 16 18 19 20 22 23 24 24 24 25 25 26
14 14 23 32 40 38 35 31 29 27 25 24 22 21 19 17 17 17 16 14 13 12 10 8 6 4 4 5 7 10 13 16 18 19 19 21 22 23 23 23 24 25 26 26
10 15 24 31 34 35 34 32 29 26 25 23 22 20 17 16 15 15 14 13 11 9 8 7 5 4 5 8 10 13 15 17 18 19 21 22 22 22 22 23 24 24 26 28
17 21 25 33 33 33 33 29 27 25 24 23 21 20 18 17 15 14 13 12 10 8 7 5 4 5 7 10 12 15 16 18 19 21 22 23 22 23 23 22 24 25 27 27
23 26 30 36 36 33 31 29 27 26 24 20 18 18 17 16 14 12 11 10 9 8 5 4 5 7 10 12 14 16 18 19 21 22 22 22 23 23 23 25 26 27 28 28
27 31 36 37 36 34 29 27 25 24 23 21 18 17 17 16 15 14 11 6 6 5 4 4 6 9 12 14 16 18 19 20 21 21 21 22 23 24 25 26 27 28 27 28
30 35 38 37 36 34 30 26 23 21 21 19 18 16 14 13 12 9 8 7 5 3 3 6 8 12 13 15 17 19 19 20 20 21 22 23 24 25 26 27 28 27 26 25
34 38 39 36 34 33 31 26 23 21 19 18 16 14 12 13 12 9 6 6 3 3 6 8 10 12 15 17 18 18 19 20 21 22 22 23 24 25 25 26 25 24 24 22
37 38 37 37 34 32 29 27 25 23 21 19 18 16 13 10 6 7 5 2 3 5 7 9 11 14 16 17 18 19 20 21 22 23 24 24 24 24 23 22 22 22 21 20
39 40 37 33 31 30 28 27 24 23 21 20 18 15 11 8 7 5 3 3 4 6 8 11 13 15 17 18 19 20 22 22 23 23 23 22 22 21 21 21 21 20 18 17
39 37 34 31 27 26 24 23 22 22 19 16 15 14 11 8 5 3 3 3 5 7 10 13 15 17 18 19 20 21 22 23 23 23 22 21 19 19 20 20 18 18 17 16
Wind_Direction
240 251 243 241 217 201 211 218 227 254 264 275 282 293 261 170 147 154 167 177 179 180 183 186 187 189 191 194 194 199 204 206 211 217 224 231 246 265 283 296 301 304 309 313
252 238 226 232 224 222 210 217 232 259 250 233 260 277 201 168 164 165 173 180 183 185 186 189 191 191 191 193 196 200 203 207 213 219 226 236 255 276 290 294 299 306 314 319
283 308 131 215 223 214 199 206 209 222 245 277 299 308 208 176 179 177 181 187 188 190 191 192 192 192 191 193 194 196 202 208 213 218 228 247 269 282 288 292 301 311 316 319
268 248 355 304 169 188 184 194 204 265 279 274 287 19 341 191 190 183 187 189 190 191 191 190 187 186 191 192 193 197 202 206 209 218 238 264 277 284 288 298 308 315 319 322
281 231 179 70 165 179 181 255 238 239 245 249 186 115 275 147 185 191 195 194 192 190 188 182 182 185 187 186 190 195 198 200 207 225 254 270 280 286 294 304 312 318 322 323
333 360 65 44 160 168 171 267 205 214 224 171 176 197 225 139 162 176 186 190 184 179 176 176 176 181 184 184 187 188 188 195 216 241 263 278 284 292 303 313 317 319 323 324
292 308 299 241 129 122 162 251 157 188 205 174 205 182 146 143 144 156 162 164 165 164 167 171 171 174 179 180 175 177 188 204 232 260 274 281 292 301 310 313 318 320 322 325
111 49 333 89 151 182 213 176 170 155 152 133 127 130 127 129 131 139 144 147 153 154 156 159 168 175 171 169 173 180 195 223 249 267 279 289 298 306 314 319 320 323 326 329
172 213 256 320 317 5 340 134 168 160 151 143 137 131 132 130 133 136 139 143 149 156 156 156 159 166 168 169 176 191 210 234 257 277 289 299 309 314 318 321 325 329 333 332
66 345 237 294 76 69 68 104 137 157 150 153 144 143 139 140 140 141 143 147 151 153 154 156 158 160 173 176 185 197 222 253 269 287 302 311 315 319 324 329 332 334 332 330
266 264 321 251 193 141 124 127 136 146 152 152 148 147 146 145 145 144 144 146 151 155 157 159 163 169 173 180 191 216 239 259 287 303 308 313 320 325 329 334 336 331 329 327
214 213 179 186 173 159 146 145 147 148 148 151 152 148 148 146 147 147 149 152 155 157 162 164 169 174 178 186 203 227 253 287 300 305 314 321 323 325 331 333 333 333 331 329
205 155 151 144 158 160 152 149 150 150 149 149 148 147 149 146 149 151 156 158 160 161 165 169 169 174 182 197 214 240 277 291 306 319 323 323 328 331 330 331 333 336 335 333
190 131 111 149 159 161 157 152 152 148 148 150 150 152 152 152 153 158 157 157 161 163 164 168 174 182 190 195 223 259 288 312 320 320 323 329 331 330 331 333 334 337 339 338
176 196 190 163 155 157 159 155 150 147 149 148 152 154 159 157 155 155 160 163 164 167 170 174 179 181 187 210 245 289 309 312 317 325 329 328 327 327 330 332 334 336 337 338
163 140 150 158 156 157 159 159 154 151 154 153 156 158 158 156 155 155 155 159 167 167 169 174 180 188 201 235 281 300 306 316 324 325 324 325 326 329 332 333 334 334 336 339
138 136 155 155 160 162 164 164 161 156 157 158 159 157 155 154 151 150 151 154 162 167 171 176 185 195 229 269 288 299 314 322 322 321 323 326 329 330 331 330 330 331 335 338
196 192 177 174 168 166 166 165 162 160 161 160 158 155 154 156 156 157 161 165 168 172 175 179 193 218 248 276 299 312 317 318 320 323 326 327 327 327 326 326 328 331 335 337
190 182 176 175 171 167 164 163 163 162 160 159 154 152 153 154 157 161 163 164 170 178 179 186 201 237 279 300 308 312 315 318 322 324 325 324 323 324 326 328 329 331 333 335
166 172 173 171 168 167 162 162 162 160 157 156 157 156 157 161 165 165 163 165 169 178 181 193 236 278 293 300 309 312 317 323 324 324 323 322 323 326 328 327 327 329 331 334
170 169 167 165 164 165 164 163 163 159 156 161 161 162 164 162 163 167 168 175 173 173 194 235 273 289 298 309 313 318 322 323 322 322 323 325 326 327 326 326 327 328 329 329
169 166 164 163 163 161 162 160 160 158 157 159 163 165 165 162 162 162 165 179 176 197 229 267 291 298 307 317 319 321 322 322 322 324 325 326 327 326 324 325 325 325 326 325
167 165 163 163 162 157 154 156 158 161 160 163 163 162 162 159 163 172 171 176 195 226 273 292 300 305 316 316 320 321 322 324 325 325 326 326 324 322 323 324 323 324 323 324
164 164 163 159 157 154 152 155 158 158 158 155 154 155 163 165 164 170 182 188 216 269 288 299 305 310 316 320 322 324 325 326 326 326 325 323 322 323 323 324 326 326 327 327
166 161 159 159 159 157 156 155 157 157 157 155 155 156 159 162 175 174 171 198 261 287 298 306 312 318 322 325 326 327 327 326 327 326 325 324 324 325 327 329 329 330 331 332
162 161 161 163 162 160 160 159 160 158 163 160 157 159 163 166 161 168 196 259 286 297 309 317 322 326 328 328 328 326 326 326 325 324 325 326 328 330 330 332 333 333 333 335
163 162 160 159 161 162 160 160 163 159 161 163 163 160 163 162 168 195 244 279 302 315 322 327 330 329 328 328 326 325 324 323 324 325 327 328 329 329 331 333 335 337 338 339
Height
1400 1397 1402 1401 1401 1403 1403 1397 1403 1396 1396 1390 1380 1378 1382 1383 1384 1386 1391 1396 1402 1408 1418 1426 1433 1439 1444 1449 1453 1458 1461 1464 1467 1469 1470 1471 1471 1471 1470 1469 1466 1464 1461 1459
1392 1390 1392 1395 1399 1394 1391 1393 1395 1396 1390 1388 1380 1382 1376 1378 1383 1387 1390 1396 1402 1411 1418 1425 1431 1438 1443 1449 1453 1457 1459 1462 1465 1467 1468 1469 1469 1469 1467 1465 1463 1461 1457 1453
1380 1368 1374 1390 1379 1380 1382 1385 1391 1397 1379 1381 1379 1376 1376 1377 1381 1383 1389 1395 1402 1409 1417 1424 1431 1438 1443 1448 1452 1455 1458 1461 1463 1464 1466 1466 1466 1465 1464 1462 1460 1457 1453 1449
1379 1374 1369 1362 1356 1366 1377 1385 1389 1388 1383 1379 1379 1380 1381 1382 1384 1386 1390 1395 1402 1409 1417 1425 1433 1439 1444 1448 1451 1454 1456 1459 1461 1463 1464 1464 1463 1462 1461 1459 1456 1453 1450 1445
1375 1377 1368 1369 1368 1371 1379 1383 1382 1384 1382 1383 1382 1386 1389 1381 1383 1386 1390 1396 1402 1410 1418 1426 1432 1438 1443 1447 1450 1452 1455 1458 1460 1461 1461 1461 1460 1459 1458 1456 1453 1450 1445 1440
1377 1382 1369 1364 1366 1368 1380 1379 1366 1374 1376 1381 1388 1391 1383 1382 1384 1387 1393 1399 1405 1413 1420 1427 1433 1438 1442 1445 1448 1452 1455 1457 1458 1459 1459 1459 1458 1456 1455 1452 1449 1445 1441 1436
1383 1381 1378 1367 1366 1371 1384 1372 1358 1363 1367 1377 1382 1380 1380 1383 1386 1391 1396 1402 1409 1415 1421 1428 1434 1438 1442 1445 1448 1452 1454 1456 1457 1457 1457 1457 1456 1454 1451 1448 1445 1441 1436 1432
1386 1384 1389 1364 1366 1369 1365 1361 1361 1366 1370 1376 1375 1379 1382 1387 1390 1396 1400 1406 1413 1418 1424 1430 1435 1438 1442 1445 1449 1451 1453 1454 1455 1455 1455 1455 1453 1451 1448 1444 1440 1436 1431 1426
1376 1377 1366 1364 1363 1362 1361 1361 1362 1363 1368 1372 1377 1382 1388 1392 1397 1402 1407 1411 1417 1421 1425 1431 1436 1440 1442 1445 1448 1451 1452 1454 1454 1454 1453 1452 1450 1447 1444 1440 1435 1430 1425 1420
1369 1366 1365 1365 1364 1362 1361 1360 1363 1366 1370 1374 1378 1387 1391 1397 1403 1406 1411 1415 1419 1423 1427 1432 1437 1440 1444 1446 1448 1450 1452 1453 1453 1452 1451 1449 1446 1444 1440 1436 1431 1426 1421 1416
1370 1367 1366 1365 1364 1364 1365 1366 1367 1371 1375 1378 1383 1391 1395 1401 1405 1409 1413 1418 1422 1426 1430 1434 1438 1441 1444 1446 1448 1450 1451 1451 1451 1450 1448 1446 1443 1440 1436 1433 1428 1423 1418 1414
1367 1358 1360 1360 1363 1366 1367 1370 1373 1375 1381 1387 1390 1393 1399 1403 1408 1412 1416 1420 1424 1428 1432 1435 1438 1441 1444 1446 1448 1449 1449 1449 1448 1447 1445 1443 1440 1437 1434 1430 1426 1422 1417 1412
1356 1357 1359 1360 1364 1367 1370 1373 1377 1381 1385 1389 1396 1398 1403 1406 1411 1415 1419 1422 1427 1430 1433 1436 1439 1442 1444 1446 1447 1448 1448 1447 1446 1444 1442 1439 1436 1432 1428 1426 1422 1418 1413 1408
1355 1356 1361 1362 1365 1370 1373 1377 1382 1385 1390 1395 1398 1403 1407 1410 1414 1418 1421 1425 1429 1432 1435 1437 1440 1442 1444 1446 1446 1446 1446 1445 1443 1441 1438 1435 1432 1429 1425 1420 1414 1411 1409 1404
1355 1355 1357 1360 1366 1371 1376 1380 1385 1389 1394 1398 1403 1406 1409 1412 1416 1420 1424 1427 1430 1434 1436 1438 1440 1442 1444 1445 1445 1444 1443 1442 1440 1438 1435 1432 1429 1426 1421 1417 1413 1408 1403 1400
1355 1356 1359 1361 1366 1372 1377 1383 1385 1391 1396 1400 1404 1408 1412 1416 1419 1422 1426 1429 1432 1434 1436 1439 1441 1442 1443 1443 1443 1442 1441 1439 1437 1435 1432 1429 1426 1422 1417 1414 1410 1406 1401 1397
1353 1360 1362 1364 1367 1373 1378 1384 1388 1392 1397 1402 1406 1410 1414 1417 1421 1424 1427 1430 1433 1435 1437 1439 1440 1441 1441 1441 1441 1440 1438 1437 1435 1432 1429 1426 1422 1418 1414 1411 1407 1402 1399 1395
1352 1355 1358 1358 1362 1370 1379 1386 1390 1395 1399 1403 1408 1412 1416 1420 1423 1426 1428 1431 1433 1435 1437 1438 1440 1440 1440 1439 1438 1437 1436 1434 1431 1429 1426 1422 1418 1415 1411 1407 1403 1399 1395 1391
1352 1354 1358 1363 1369 1375 1381 1387 1392 1397 1401 1406 1410 1415 1419 1422 1424 1427 1429 1431 1433 1435 1437 1438 1439 1439 1438 1437 1437 1435 1433 1431 1428 1425 1422 1418 1415 1411 1407 1403 1399 1396 1392 1388
1351 1355 1359 1364 1372 1378 1383 1390 1394 1399 1404 1408 1412 1415 1419 1422 1425 1427 1430 1432 1434 1436 1437 1437 1437 1437 1437 1436 1434 1433 1430 1428 1425 1421 1418 1414 1411 1407 1404 1400 1397 1393 1388 1384
1350 1354 1359 1366 1372 1380 1385 1390 1395 1401 1406 1410 1413 1416 1420 1423 1426 1429 1431 1432 1434 1435 1436 1436 1436 1436 1434 1433 1432 1429 1427 1424 1421 1418 1414 1411 1407 1404 1400 1396 1393 1389 1385 1381
1350 1355 1361 1368 1375 1381 1388 1392 1398 1403 1407 1411 1415 1418 1421 1424 1426 1429 1432 1433 1434 1435 1435 1435 1435 1433 1432 1431 1428 1426 1423 1420 1417 1414 1410 1407 1403 1400 1396 1393 1389 1385 1381 1376
1354 1359 1364 1371 1376 1382 1390 1396 1401 1405 1409 1413 1416 1419 1422 1425 1428 1430 1431 1433 1434 1434 1434 1434 1433 1431 1430 1428 1425 1423 1420 1417 1414 1410 1407 1403 1400 1396 1392 1389 1385 1381 1376 1372
1356 1362 1367 1375 1381 1386 1391 1398 1403 1408 1412 1415 1418 1421 1424 1426 1429 1430 1432 1432 1433 1433 1433 1432 1431 1429 1427 1425 1422 1419 1416 1413 1410 1406 1403 1400 1396 1392 1388 1384 1380 1376 1372 1369
1361 1366 1372 1377 1383 1389 1394 1399 1404 1409 1413 1416 1419 1422 1425 1428 1430 1431 1431 1432 1432 1432 1431 1430 1429 1427 1424 1421 1418 1415 1412 1409 1406 1403 1399 1396 1392 1388 1384 1380 1376 1372 1369 1366
1365 1370 1375 1381 1386 1390 1395 1400 1405 1409 1413 1416 1420 1423 1426 1428 1429 1430 1431 1431 1431 1431 1430 1428 1426 1423 1421 1418 1415 1412 1409 1406 1403 1399 1395 1391 1388 1384 1380 1377 1373 1370 1367 1364
1368 1373 1378 1384 1390 1394 1398 1402 1406 1409 1414 1418 1421 1424 1427 1428 1429 1430 1430 1430 1430 1428 1427 1425 1423 1420 1417 1415 1412 1409 1405 1402 1398 1394 1391 1387 1384 1381 1378 1374 1371 1368 1365 1362